User: anonymous   Login
Location: Christian Reformed Church
(43.0975°N, 93.8113°W)
Time: 20:31:40
(UTC+00:00)
Language:

Landsat 7 - Orbit

View from above orbital plane
View from above orbital plane
View from above satellite
View from above satellite

Ground track
Ground track

The orbit is defined by the following mean orbital elements,

1 25682U          26039.61122898 +.00000000 +00000-0 +12522-3 0 00008
2 25682  97.8602  49.1416 0001663  98.7264  12.2225 14.63784081    00
Epoch (UTC): 08 February 2026 14:40:10
Eccentricity: 0.0001663
inclination: 97.8602°
perigee height: 680 km
apogee height: 682 km
right ascension of ascending node: 49.1416°
argument of perigee: 98.7264°
revolutions per day: 14.63784081
mean anomaly at epoch: 12.2225°

The dashed part of the orbit path shows where the satellite is in the earth's shadow,  

DLR